User: anonymous   Login
Location: Caltech
(34.1382°N, 118.1253°W)
Time: 09:37:28
(UTC-07:00)
Language:

ALOS - Orbit

View from above orbital plane
View from above orbital plane
View from above satellite
View from above satellite

Ground track
Ground track

The orbit data is extracted from the following two-line orbital elements,

1 28931U 06002A   17087.94482671 +.00000133 +00000-0 +34998-4 0  9999
2 28931 097.8525 119.2830 0001609 131.3048 228.8293 14.62328592595736
Epoch (UTC): 28 March 2017 22:40:33
Eccentricity: 0.0001609
inclination: 97.8525°
perigee height: 684 km
apogee height: 687 km
right ascension of ascending node: 119.2830°
argument of perigee: 131.3048°
revolutions per day: 14.62328592
mean anomaly at epoch: 228.8293°
orbit number at epoch: 59573

The dashed part of the orbit path shows where the satellite is in the earth's shadow,  

DLR